Flag for Austria Weather past 2 weeks in Ternitz, Lower Austria, Austria

Now
65 °F

Passing clouds.


Feels Like: 65 °F
Forecast: 53 / 73 °F
Wind: 5 mph from Northwest

Location: Eisenstadt

Current Time: Jul 24, 2014 at 3:27:09 AM

Latest Report: Jul 24, 2014 at 2:00 AM


Visibility: 13 mi

Pressure: 29.85 "Hg

Humidity: 73%

Dew point: 56 °F

Location of TernitzLocation

Historic Weather in Ternitz — Graph

°F

Ternitz temperature yesterday

Maximum temperature yesterday: 81 °F (at 4:00 PM)
Minimum temperature yesterday: 66 °F (at 6:00 AM)
Average temperature yesterday: 70 °F

Past Weeks' High & Low Weather Summary

 TemperatureHumidityPressure
High91 °F (Jul 20, 4:00 PM)95% (Jul 14, 3:00 AM)30.09 "Hg (Jul 14, 3:00 AM)
Low55 °F (Jul 10, 2:00 AM)32% (Jul 17, 5:00 PM)29.65 "Hg (Jul 21, 6:00 PM)
Average72 °F65%29.88 "Hg
* Reported Jul 9 2:00 AM — Jul 24 2:00 AM, Ternitz, Weather by CustomWeather, © 2014

Note: Actual official high and low records may vary slightly from our data, if they occured in-between our weather recording intervals... More about our weather records

Advertising

Ternitz weather history for previous 24 hours

 ConditionsComfort  
Time TempWeatherWind HumidityBarometerVisibility
2:00 AM
Jul 24
65 °FPassing clouds.5 mph73%29.85 "Hg12 mi
1:00 AM66 °FMild.6 mph69%29.85 "HgN/A
12:00 AM67 °FMild.8 mph65%29.85 "HgN/A
11:00 PM
Jul 23
68 °FPassing clouds.7 mph66%29.86 "Hg9 mi
10:00 PM67 °FMild.6 mph68%29.86 "HgN/A
9:00 PM67 °FMild.6 mph72%29.85 "HgN/A
8:00 PM67 °FPartly sunny.8 mph76%29.84 "Hg9 mi
7:00 PM68 °FOvercast.7 mph72%29.83 "Hg9 mi
6:00 PM71 °FMild.7 mph65%29.82 "HgN/A
5:00 PM78 °FOvercast.5 mph51%29.80 "Hg12 mi
4:00 PM81 °FWarm.5 mph42%29.78 "HgN/A
2:00 PM80 °FSunny.8 mph45%29.80 "Hg12 mi
6:00 AM66 °FScattered clouds.8 mph81%29.84 "Hg12 mi
5:00 AM66 °FClear.9 mph82%29.83 "Hg12 mi
4:00 AM66 °FOvercast.7 mph86%29.83 "Hg9 mi
3:00 AM67 °FMild.6 mph90%29.83 "HgN/A
Weather by CustomWeather, © 2014

See weather overviewHow to use our weather pages